Content
SEND FEEDBACK

Daily
Averages
Monthly
Summary
United States of America

NEW YORK - CENTRAL PARK, NEW YORK


Home > North America > United States > New York
Elevation: 14 feet     Latitude: 40 47N     Longitude: 073 58W

WEATHER
 
SELECT A DAY
Number of Records: 148,218;   Date Range: 11/1/95 - 8/30/14
 
SHARE

PRINT THIS DATA

[ ← Previous Day ]
WEATHER ALMANAC - OCTOBER 29, 2013
[ Next Day → ]
[ °C ]   °F
Weather ElementAverageHighLow
Temperature49.5 °F55 °F (1:51 pm)44.1 °F (6:51 am)
Dewpoint29.8 °F32 °F (7:51 pm)28 °F (1:51 am)
Humidity47.1 %56 % (5:51 am)38 % (12:51 pm)
Barometer30.38 in30.42 in (9:51 am)30.34 in (1:51 am)
Wind Speed5.1 mph8.1 mph (2:51 am)
Weather ElementAverage
Visibility10 mi
Wind DirectionNNE (34.3 °)

Weather ElementTotal
Precipitation---
Heating Degree Days15.5 (Base 65)
Averaged from 23 records on October 29, 2013
WEATHER CONDITIONS BREAKOUT
WIND DIRECTION BREAKOUT
WEATHER BY HOUR - OCTOBER 29, 2013
[ °C ]   °F
Local TimeTemperatureDewpointHumidityBarometerVisibilityWind DirectionWind SpeedGust SpeedPrecipitationEventsConditions
1:51 AM48.9 °F28.0 °F44 %30.34 in10.0 miVariable5.8 mphMostly Cloudy
2:51 AM48.9 °F28.0 °F44 %30.34 in10.0 miNE (50°)8.1 mphOvercast
3:51 AM48.0 °F30.0 °F50 %30.35 in10.0 miVariable6.9 mphOvercast
4:51 AM48.0 °F30.9 °F52 %30.36 in10.0 miVariable5.8 mphOvercast
5:51 AM46.0 °F30.9 °F56 %30.39 in10.0 miEast (80°)5.8 mphOvercast
6:51 AM44.1 °F28.9 °F55 %30.39 in10.0 miVariable5.8 mphPartly Cloudy
7:51 AM44.1 °F28.9 °F55 %30.40 in10.0 miNNE (20°)4.6 mphMostly Cloudy
8:51 AM45.0 °F28.0 °F52 %30.41 in10.0 miENE (60°)6.9 mphClear
9:51 AM46.9 °F28.0 °F48 %30.42 in10.0 miNE (50°)5.8 mphOvercast
10:51 AM48.9 °F28.0 °F44 %30.42 in10.0 miVariable5.8 mphPartly Cloudy
11:51 AM51.1 °F28.0 °F41 %30.41 in10.0 miVariable4.6 mphClear
12:51 PM54.0 °F28.9 °F38 %30.40 in10.0 miVariable3.5 mphClear
1:51 PM55.0 °F30.0 °F38 %30.37 in10.0 miVariable4.6 mphMostly Cloudy
2:51 PM54.0 °F30.0 °F40 %30.36 in10.0 miNE (50°)5.8 mphOvercast
3:51 PM54.0 °F30.0 °F40 %30.37 in10.0 miENE (60°)6.9 mphScattered Clouds
4:51 PM53.1 °F30.0 °F41 %30.37 in10.0 miNNE (30°)3.5 mphClear
5:51 PM51.1 °F30.9 °F46 %30.36 in10.0 miNNE (30°)5.8 mphClear
6:51 PM51.1 °F30.9 °F46 %30.37 in10.0 miENE (70°)5.8 mphClear
7:51 PM48.9 °F32.0 °F52 %30.39 in10.0 miENE (70°)3.5 mphClear
8:51 PM48.9 °F32.0 °F52 %30.37 in10.0 miNE (40°)3.5 mphClear
9:51 PM50.0 °F32.0 °F50 %30.37 in10.0 miNE (40°)4.6 mphClear
10:51 PM50.0 °F30.0 °F46 %30.38 in10.0 miCalmClear
11:51 PM48.0 °F32.0 °F54 %30.36 in10.0 miSE (140°)4.6 mphClear
Hourly data recorded from KNYC, located miles away from New York - Central Park, New York







STORIES FROM OUR PARTNERS